Weather History for Marysville, CA

Change the Weather History Date:

Thursday, November 8, 2012

  Actual Average Record
Temperature  
Mean Temperature 51 °F -  
Max Temperature 59 °F 68 °F 85 °F (1955)
Min Temperature 42 °F 45 °F 34 °F (2011)
Degree Days  
Heating Degree Days 14    
Growing Degree Days 1 (Base 50)    
Moisture  
Dew Point 43 °F    
Average Humidity 75    
Maximum Humidity 89    
Minimum Humidity 44    
Precipitation  
Precipitation 0.03 in - - ()
Sea Level Pressure  
Sea Level Pressure 29.86 in    
Wind  
Wind Speed 13 mph (SSE)    
Max Wind Speed 18 mph    
Max Gust Speed 24 mph    
Visibility 10 miles    
Events Rain    
Averages and records for this station are not official NWS values.
T = Trace of Precipitation, MM = Missing Value Source: NWS Daily Summary

Daily Weather History Graph

Daily Weather History Graph

Search for Another Location

Airport:

Trip Planner

Search our weather history database for the weather conditions in past years. The results will help you decide how hot, cold, wet, or windy it might be!

Date:

Astronomy

Nov. 08, 2012 Rise Set
Actual Time 6:42 AM PST 4:57 PM PST
Civil Twilight 6:14 AM PST 5:25 PM PST
Nautical Twilight 5:42 AM PST 5:57 PM PST
Astronomical Twilight 5:10 AM PST 6:28 PM PST
Moon 12:45 AM PST (11/8) 1:39 PM PST (11/8)
Length of Visible Light 11h 11m
Length of Day
10h 15m
Waning Crescent, 32% of the Moon is Illuminated
Nov 8
Waning Crescent
Nov 13
New
Nov 20
First Quarter
Nov 28
Full
Dec 6
Last Quarter

Hourly Weather History & Observations

Time (PST) Temp. Windchill Dew Point Humidity Pressure Visibility Wind Dir Wind Speed Gust Speed Precip Events Conditions
12:53 AM 55.0 °F - 50.0 °F 83% 29.83 in 10.0 mi SSE 17.3 mph 24.2 mph N/A   Clear
1:53 AM 54.0 °F - 50.0 °F 86% 29.82 in 10.0 mi SSE 17.3 mph - N/A   Partly Cloudy
2:53 AM 53.1 °F - 50.0 °F 89% 29.81 in 10.0 mi SSE 16.1 mph 24.2 mph N/A   Clear
3:53 AM 52.0 °F - 48.0 °F 86% 29.81 in 10.0 mi SSE 15.0 mph - N/A   Clear
4:53 AM 50.0 °F - 46.9 °F 89% 29.83 in 10.0 mi SSE 12.7 mph - N/A   Clear
5:53 AM 48.9 °F - 45.0 °F 86% 29.83 in 10.0 mi SSE 15.0 mph - N/A   Clear
6:53 AM 48.0 °F - 43.0 °F 83% 29.85 in 10.0 mi SE 16.1 mph 23.0 mph N/A   Clear
7:53 AM 50.0 °F - 43.0 °F 77% 29.88 in 10.0 mi SSE 16.1 mph 24.2 mph N/A   Mostly Cloudy
9:53 AM 55.9 °F - 41.0 °F 57% 29.91 in 10.0 mi SSE 13.8 mph - N/A   Mostly Cloudy
10:53 AM 57.9 °F - 39.0 °F 49% 29.90 in 10.0 mi SSE 10.4 mph - N/A   Scattered Clouds
11:53 AM 59.0 °F - 37.0 °F 44% 29.88 in 10.0 mi South 15.0 mph - N/A   Overcast
12:53 PM 54.0 °F - 45.0 °F 72% 29.88 in 8.0 mi South 12.7 mph - 0.02 in Rain Light Rain
1:53 PM 53.1 °F - 46.0 °F 77% 29.84 in 10.0 mi South 11.5 mph - 0.01 in Rain Light Rain
2:53 PM 54.0 °F - 46.9 °F 77% 29.85 in 10.0 mi South 16.1 mph - 0.00 in   Mostly Cloudy
3:53 PM 55.0 °F - 46.0 °F 72% 29.83 in 10.0 mi South 18.4 mph - N/A   Scattered Clouds
4:53 PM 52.0 °F - 42.1 °F 69% 29.84 in 10.0 mi SSW 6.9 mph - N/A   Clear
5:53 PM 48.0 °F - 37.9 °F 68% 29.86 in 10.0 mi SE 4.6 mph - N/A   Clear
6:53 PM 46.9 °F - 37.9 °F 71% 29.86 in 10.0 mi ESE 4.6 mph - N/A   Clear
7:53 PM 46.9 °F - 36.0 °F 66% 29.86 in 10.0 mi Calm Calm - N/A   Clear
8:53 PM 45.0 °F - 36.0 °F 71% 29.86 in 10.0 mi Calm Calm - N/A   Partly Cloudy
9:53 PM 43.0 °F 38.2 °F 36.0 °F 76% 29.88 in 10.0 mi South 8.1 mph - N/A   Clear
10:53 PM 43.0 °F 38.2 °F 37.9 °F 82% 29.88 in - SSE 8.1 mph - N/A   Clear
11:53 PM 42.1 °F 37.7 °F 39.0 °F 89% 29.90 in - SSE 6.9 mph - N/A   Clear